Time,TemperatureF,DewpointF,PressureIn,WindDirection,WindDirectionDegrees,WindSpeedMPH,WindSpeedGustMPH,Humidity,HourlyPrecipIn,Conditions,Clouds,dailyrainin,SoftwareType,DateUTC
2013-04-10 00:05:00,48.2,43.9,29.98,South,184,0.0,0.0,85,0.00,,---,0.10,VWS V14.01,2013-04-10 03:05:00,
2013-04-10 00:12:00,48.0,42.5,29.98,South,184,0.0,0.0,81,0.00,,---,0.10,VWS V14.01,2013-04-10 03:12:00,
2013-04-10 00:18:00,47.8,42.3,29.99,South,184,0.0,0.0,81,0.00,,---,0.10,VWS V14.01,2013-04-10 03:18:00,
2013-04-10 00:24:00,47.6,42.4,29.99,South,184,0.0,0.0,82,0.00,,---,0.10,VWS V14.01,2013-04-10 03:24:00,
2013-04-10 00:30:00,47.4,42.2,29.98,South,184,0.0,0.0,82,0.00,,---,0.10,VWS V14.01,2013-04-10 03:30:00,
2013-04-10 00:36:00,47.1,42.2,29.98,South,184,0.0,0.0,83,0.00,,---,0.10,VWS V14.01,2013-04-10 03:36:00,
2013-04-10 00:42:00,46.8,41.9,29.97,South,184,0.0,0.0,83,0.00,,---,0.10,VWS V14.01,2013-04-10 03:42:00,
2013-04-10 00:47:00,46.7,41.8,29.96,East,83,2.0,0.0,83,0.00,,---,0.10,VWS V14.01,2013-04-10 03:47:00,
2013-04-10 00:53:00,46.3,41.4,29.96,ESE,109,0.0,0.0,83,0.00,,---,0.10,VWS V14.01,2013-04-10 03:53:00,
2013-04-10 00:59:00,46.1,41.5,29.96,ESE,109,0.0,0.0,84,0.00,,---,0.10,VWS V14.01,2013-04-10 03:59:00,
2013-04-10 01:00:00,46.1,41.5,29.96,ESE,109,0.0,0.0,84,0.00,,---,0.00,VWS V14.01,2013-04-10 04:00:00,
2013-04-10 01:05:00,46.0,41.4,29.96,ESE,102,0.0,0.0,84,0.00,,---,0.00,VWS V14.01,2013-04-10 04:05:00,
2013-04-10 01:09:00,45.9,41.3,29.96,ESE,102,0.0,0.0,84,0.00,,---,0.00,VWS V14.01,2013-04-10 04:09:00,
2013-04-10 01:15:00,45.8,41.2,29.96,ESE,102,0.0,0.0,84,0.00,,---,0.00,VWS V14.01,2013-04-10 04:15:00,
2013-04-10 01:22:00,45.8,41.2,29.95,ESE,102,0.0,0.0,84,0.00,,---,0.00,VWS V14.01,2013-04-10 04:22:00,
2013-04-10 01:28:00,45.8,41.5,29.94,ESE,102,0.0,0.0,85,0.00,,---,0.00,VWS V14.01,2013-04-10 04:28:00,
2013-04-10 01:33:00,45.7,41.5,29.93,ESE,102,0.0,0.0,85,0.00,,---,0.00,VWS V14.01,2013-04-10 04:33:00,
2013-04-10 01:39:00,45.7,41.5,29.94,ESE,102,1.0,0.0,85,0.00,,---,0.00,VWS V14.01,2013-04-10 04:39:00,
2013-04-10 01:45:00,45.6,41.4,29.93,ESE,102,0.0,0.0,85,0.00,,---,0.00,VWS V14.01,2013-04-10 04:45:00,
2013-04-10 01:51:00,45.6,41.4,29.93,ESE,102,1.0,0.0,85,0.00,,---,0.00,VWS V14.01,2013-04-10 04:51:00,
2013-04-10 01:57:00,45.5,41.3,29.93,ESE,102,0.0,0.0,85,0.00,,---,0.00,VWS V14.01,2013-04-10 04:57:00,
2013-04-10 02:03:00,45.5,41.3,29.92,ESE,102,0.0,0.0,85,0.00,,---,0.00,VWS V14.01,2013-04-10 05:03:00,
2013-04-10 02:09:00,45.5,41.3,29.93,ESE,102,0.0,0.0,85,0.00,,---,0.00,VWS V14.01,2013-04-10 05:09:00,
2013-04-10 02:15:00,45.5,41.6,29.93,ESE,102,0.0,0.0,86,0.00,,---,0.00,VWS V14.01,2013-04-10 05:15:00,
2013-04-10 02:21:00,45.5,41.6,29.94,ESE,102,0.0,0.0,86,0.00,,---,0.00,VWS V14.01,2013-04-10 05:21:00,
2013-04-10 02:27:00,45.4,41.5,29.95,ESE,102,0.0,0.0,86,0.00,,---,0.00,VWS V14.01,2013-04-10 05:27:00,
2013-04-10 02:33:00,45.4,41.5,29.95,ESE,102,2.0,0.0,86,0.00,,---,0.00,VWS V14.01,2013-04-10 05:33:00,
2013-04-10 02:39:00,45.4,41.5,29.96,South,171,0.0,0.0,86,0.00,,---,0.00,VWS V14.01,2013-04-10 05:39:00,
2013-04-10 02:45:00,45.4,41.5,29.96,South,171,0.0,0.0,86,0.00,,---,0.00,VWS V14.01,2013-04-10 05:45:00,
2013-04-10 02:51:00,45.4,41.5,29.96,South,171,0.0,0.0,86,0.01,,---,0.01,VWS V14.01,2013-04-10 05:51:00,
2013-04-10 02:57:00,45.3,43.1,29.95,South,171,0.0,0.0,92,0.01,,---,0.01,VWS V14.01,2013-04-10 05:57:00,
2013-04-10 03:03:00,45.2,42.2,29.97,South,171,2.0,0.0,89,0.01,,---,0.01,VWS V14.01,2013-04-10 06:03:00,
2013-04-10 03:09:00,45.0,42.0,29.98,South,171,0.0,0.0,89,0.01,,---,0.01,VWS V14.01,2013-04-10 06:09:00,
2013-04-10 03:16:00,44.8,42.0,29.98,South,171,0.0,0.0,90,0.01,,---,0.01,VWS V14.01,2013-04-10 06:16:00,
2013-04-10 03:21:00,44.8,42.0,29.97,South,171,0.0,0.0,90,0.01,,---,0.01,VWS V14.01,2013-04-10 06:21:00,
2013-04-10 03:27:00,44.8,42.3,29.97,South,171,0.0,0.0,91,0.02,,---,0.02,VWS V14.01,2013-04-10 06:27:00,
2013-04-10 03:33:00,44.7,42.2,29.97,South,171,0.0,0.0,91,0.02,,---,0.02,VWS V14.01,2013-04-10 06:33:00,
2013-04-10 03:39:00,44.7,42.2,29.98,South,171,0.0,0.0,91,0.02,,---,0.02,VWS V14.01,2013-04-10 06:39:00,
2013-04-10 03:45:00,44.6,42.4,29.97,South,171,0.0,0.0,92,0.02,,---,0.02,VWS V14.01,2013-04-10 06:45:00,
2013-04-10 03:51:00,44.6,42.4,29.98,South,171,0.0,0.0,92,0.02,,---,0.02,VWS V14.01,2013-04-10 06:51:00,
2013-04-10 03:57:00,44.6,42.4,29.97,South,171,0.0,0.0,92,0.03,,---,0.03,VWS V14.01,2013-04-10 06:57:00,
2013-04-10 04:03:00,44.5,42.3,29.98,South,171,0.0,0.0,92,0.03,,---,0.04,VWS V14.01,2013-04-10 07:03:00,
2013-04-10 04:09:00,44.5,42.6,29.98,South,171,0.0,0.0,93,0.04,,---,0.05,VWS V14.01,2013-04-10 07:09:00,
2013-04-10 04:15:00,44.5,42.6,29.98,South,171,0.0,0.0,93,0.06,,---,0.07,VWS V14.01,2013-04-10 07:15:00,
2013-04-10 04:21:00,44.5,42.6,29.98,South,171,0.0,0.0,93,0.08,,---,0.09,VWS V14.01,2013-04-10 07:21:00,
2013-04-10 04:27:00,44.4,42.5,29.98,South,171,0.0,0.0,93,0.09,,---,0.10,VWS V14.01,2013-04-10 07:27:00,
2013-04-10 04:33:00,44.3,42.7,29.98,South,171,0.0,0.0,94,0.09,,---,0.11,VWS V14.01,2013-04-10 07:33:00,
2013-04-10 04:39:00,44.3,42.7,29.96,South,171,0.0,0.0,94,0.11,,---,0.13,VWS V14.01,2013-04-10 07:39:00,
2013-04-10 04:45:00,44.3,42.7,29.93,South,171,0.0,0.0,94,0.13,,---,0.15,VWS V14.01,2013-04-10 07:45:00,
2013-04-10 04:52:00,44.2,42.6,29.92,South,171,0.0,0.0,94,0.14,,---,0.16,VWS V14.01,2013-04-10 07:52:00,
2013-04-10 04:58:00,44.2,42.6,29.93,South,171,0.0,0.0,94,0.14,,---,0.16,VWS V14.01,2013-04-10 07:58:00,
2013-04-10 05:04:00,44.1,42.5,29.93,South,171,0.0,0.0,94,0.13,,---,0.16,VWS V14.01,2013-04-10 08:04:00,
2013-04-10 05:10:00,44.1,42.5,29.92,South,171,0.0,0.0,94,0.13,,---,0.16,VWS V14.01,2013-04-10 08:10:00,
2013-04-10 05:16:00,44.2,42.9,29.92,South,171,0.0,0.0,95,0.14,,---,0.17,VWS V14.01,2013-04-10 08:16:00,
2013-04-10 05:22:00,44.2,42.9,29.93,South,171,0.0,0.0,95,0.15,,---,0.18,VWS V14.01,2013-04-10 08:22:00,
2013-04-10 05:28:00,44.3,43.0,29.92,South,171,0.0,0.0,95,0.15,,---,0.18,VWS V14.01,2013-04-10 08:28:00,
2013-04-10 05:34:00,44.2,42.9,29.91,South,171,0.0,0.0,95,0.08,,---,0.19,VWS V14.01,2013-04-10 08:34:00,
2013-04-10 05:40:00,44.2,42.9,29.92,South,171,0.0,0.0,95,0.08,,---,0.19,VWS V14.01,2013-04-10 08:40:00,
2013-04-10 05:46:00,44.2,42.9,29.91,South,171,0.0,0.0,95,0.08,,---,0.19,VWS V14.01,2013-04-10 08:46:00,
2013-04-10 05:52:00,44.1,42.8,29.91,South,171,0.0,0.0,95,0.08,,---,0.19,VWS V14.01,2013-04-10 08:52:00,
2013-04-10 05:58:00,44.1,42.8,29.92,South,171,0.0,0.0,95,0.08,,---,0.19,VWS V14.01,2013-04-10 08:58:00,
2013-04-10 06:04:00,44.2,42.9,29.92,South,171,0.0,0.0,95,0.03,,---,0.19,VWS V14.01,2013-04-10 09:04:00,
2013-04-10 06:10:00,44.2,42.9,29.92,South,171,0.0,0.0,95,0.03,,---,0.19,VWS V14.01,2013-04-10 09:10:00,
2013-04-10 06:16:00,44.3,43.0,29.92,South,171,0.0,0.0,95,0.03,,---,0.19,VWS V14.01,2013-04-10 09:16:00,
2013-04-10 06:22:00,44.2,42.9,29.92,South,171,0.0,0.0,95,0.03,,---,0.19,VWS V14.01,2013-04-10 09:22:00,
2013-04-10 06:28:00,44.2,42.9,29.92,South,171,0.0,0.0,95,0.03,,---,0.19,VWS V14.01,2013-04-10 09:28:00,
2013-04-10 06:34:00,44.2,42.9,29.92,South,171,0.0,0.0,95,0.00,,---,0.19,VWS V14.01,2013-04-10 09:34:00,
2013-04-10 06:40:00,44.2,42.9,29.92,South,171,0.0,0.0,95,0.00,,---,0.19,VWS V14.01,2013-04-10 09:40:00,
2013-04-10 06:47:00,44.2,42.9,29.92,South,171,0.0,0.0,95,0.00,,---,0.19,VWS V14.01,2013-04-10 09:47:00,
2013-04-10 06:53:00,44.2,42.9,29.92,South,171,0.0,0.0,95,0.00,,---,0.19,VWS V14.01,2013-04-10 09:53:00,
2013-04-10 06:59:00,44.2,42.9,29.92,South,171,0.0,0.0,95,0.00,,---,0.19,VWS V14.01,2013-04-10 09:59:00,
2013-04-10 07:05:00,44.2,42.9,29.92,South,171,0.0,0.0,95,0.00,,---,0.19,VWS V14.01,2013-04-10 10:05:00,
2013-04-10 07:12:00,44.3,43.0,29.92,South,171,0.0,0.0,95,0.00,,---,0.19,VWS V14.01,2013-04-10 10:12:00,
2013-04-10 07:18:00,44.3,43.0,29.92,South,171,0.0,0.0,95,0.00,,---,0.19,VWS V14.01,2013-04-10 10:18:00,
2013-04-10 07:24:00,44.3,43.0,29.92,South,171,0.0,0.0,95,0.00,,---,0.19,VWS V14.01,2013-04-10 10:24:00,
2013-04-10 07:30:00,44.3,43.0,29.92,South,171,0.0,0.0,95,0.00,,---,0.19,VWS V14.01,2013-04-10 10:30:00,
2013-04-10 07:36:00,44.3,43.0,29.92,South,171,0.0,0.0,95,0.00,,---,0.19,VWS V14.01,2013-04-10 10:36:00,
2013-04-10 07:42:00,44.3,43.0,29.93,South,171,0.0,0.0,95,0.00,,---,0.19,VWS V14.01,2013-04-10 10:42:00,
2013-04-10 07:48:00,44.4,43.1,29.93,South,171,0.0,0.0,95,0.00,,---,0.19,VWS V14.01,2013-04-10 10:48:00,
2013-04-10 07:54:00,44.5,43.2,29.93,South,171,0.0,0.0,95,0.00,,---,0.19,VWS V14.01,2013-04-10 10:54:00,
2013-04-10 08:00:00,44.5,43.2,29.93,South,171,0.0,0.0,95,0.00,,---,0.19,VWS V14.01,2013-04-10 11:00:00,
2013-04-10 08:06:00,44.5,43.2,29.93,South,171,0.0,0.0,95,0.00,,---,0.19,VWS V14.01,2013-04-10 11:06:00,
2013-04-10 08:12:00,44.6,43.3,29.93,South,171,0.0,0.0,95,0.00,,---,0.19,VWS V14.01,2013-04-10 11:12:00,
2013-04-10 08:18:00,44.7,43.6,29.93,South,171,0.0,0.0,96,0.00,,---,0.19,VWS V14.01,2013-04-10 11:18:00,
2013-04-10 08:24:00,44.8,43.7,29.92,South,171,0.0,0.0,96,0.00,,---,0.19,VWS V14.01,2013-04-10 11:24:00,
2013-04-10 08:30:00,44.9,43.8,29.93,South,171,0.0,0.0,96,0.00,,---,0.19,VWS V14.01,2013-04-10 11:30:00,
2013-04-10 08:36:00,45.1,44.0,29.93,South,171,0.0,0.0,96,0.00,,---,0.19,VWS V14.01,2013-04-10 11:36:00,
2013-04-10 08:42:00,45.3,44.2,29.94,South,171,0.0,0.0,96,0.00,,---,0.19,VWS V14.01,2013-04-10 11:42:00,
2013-04-10 08:48:00,45.3,44.2,29.94,South,171,0.0,0.0,96,0.00,,---,0.19,VWS V14.01,2013-04-10 11:48:00,
2013-04-10 08:53:00,45.4,44.3,29.94,South,171,0.0,0.0,96,0.00,,---,0.19,VWS V14.01,2013-04-10 11:53:00,
2013-04-10 08:59:00,45.4,44.3,29.94,South,171,0.0,0.0,96,0.00,,---,0.19,VWS V14.01,2013-04-10 11:59:00,
2013-04-10 09:05:00,45.5,44.4,29.94,South,171,0.0,0.0,96,0.00,,---,0.19,VWS V14.01,2013-04-10 12:05:00,
2013-04-10 09:11:00,45.7,44.6,29.94,South,171,0.0,0.0,96,0.00,,---,0.19,VWS V14.01,2013-04-10 12:11:00,
2013-04-10 09:17:00,45.9,44.8,29.94,South,171,0.0,0.0,96,0.00,,---,0.19,VWS V14.01,2013-04-10 12:17:00,
2013-04-10 09:23:00,45.9,44.8,29.95,South,171,0.0,0.0,96,0.00,,---,0.19,VWS V14.01,2013-04-10 12:23:00,
2013-04-10 09:29:00,45.9,44.8,29.95,South,171,0.0,0.0,96,0.00,,---,0.19,VWS V14.01,2013-04-10 12:29:00,
2013-04-10 09:35:00,45.9,44.8,29.96,South,171,0.0,0.0,96,0.00,,---,0.19,VWS V14.01,2013-04-10 12:35:00,
2013-04-10 09:41:00,45.9,44.8,29.96,South,171,0.0,0.0,96,0.00,,---,0.19,VWS V14.01,2013-04-10 12:41:00,
2013-04-10 09:47:00,45.9,44.8,29.96,South,171,0.0,0.0,96,0.00,,---,0.19,VWS V14.01,2013-04-10 12:47:00,
2013-04-10 09:53:00,45.9,44.8,29.95,South,171,0.0,0.0,96,0.00,,---,0.19,VWS V14.01,2013-04-10 12:53:00,
2013-04-10 09:59:00,46.0,44.9,29.95,South,171,0.0,0.0,96,0.00,,---,0.19,VWS V14.01,2013-04-10 12:59:00,
2013-04-10 10:05:00,46.4,45.3,29.95,South,171,0.0,0.0,96,0.00,,---,0.19,VWS V14.01,2013-04-10 13:05:00,
2013-04-10 10:11:00,46.6,45.5,29.95,South,171,0.0,0.0,96,0.00,,---,0.19,VWS V14.01,2013-04-10 13:11:00,
2013-04-10 10:17:00,46.8,45.7,29.95,South,171,0.0,0.0,96,0.00,,---,0.19,VWS V14.01,2013-04-10 13:17:00,
2013-04-10 10:23:00,46.6,45.5,29.95,South,171,0.0,0.0,96,0.00,,---,0.19,VWS V14.01,2013-04-10 13:23:00,
2013-04-10 10:29:00,46.7,45.6,29.95,South,171,0.0,0.0,96,0.00,,---,0.19,VWS V14.01,2013-04-10 13:29:00,
2013-04-10 10:35:00,47.0,45.7,29.95,South,171,0.0,0.0,95,0.00,,---,0.19,VWS V14.01,2013-04-10 13:35:00,
2013-04-10 10:42:00,47.7,46.6,29.95,South,171,0.0,0.0,96,0.00,,---,0.19,VWS V14.01,2013-04-10 13:42:00,
2013-04-10 10:48:00,48.0,46.9,29.95,South,171,0.0,0.0,96,0.00,,---,0.19,VWS V14.01,2013-04-10 13:48:00,
2013-04-10 10:54:00,47.8,46.2,29.95,South,171,0.0,0.0,94,0.00,,---,0.19,VWS V14.01,2013-04-10 13:54:00,
2013-04-10 11:00:00,47.6,45.7,29.95,South,171,0.0,0.0,93,0.00,,---,0.19,VWS V14.01,2013-04-10 14:00:00,
2013-04-10 11:06:00,47.6,45.7,29.95,South,171,0.0,0.0,93,0.00,,---,0.19,VWS V14.01,2013-04-10 14:06:00,
2013-04-10 11:12:00,47.9,46.3,29.94,South,171,0.0,0.0,94,0.00,,---,0.19,VWS V14.01,2013-04-10 14:12:00,
2013-04-10 11:18:00,48.0,46.1,29.94,South,171,0.0,0.0,93,0.00,,---,0.19,VWS V14.01,2013-04-10 14:18:00,
2013-04-10 11:24:00,48.1,46.2,29.95,South,171,0.0,0.0,93,0.00,,---,0.19,VWS V14.01,2013-04-10 14:24:00,
2013-04-10 11:30:00,48.4,46.5,29.95,South,171,0.0,0.0,93,0.00,,---,0.19,VWS V14.01,2013-04-10 14:30:00,
2013-04-10 11:36:00,48.6,46.4,29.95,South,171,0.0,0.0,92,0.00,,---,0.19,VWS V14.01,2013-04-10 14:36:00,
2013-04-10 11:42:00,48.7,46.2,29.95,South,171,1.0,0.0,91,0.00,,---,0.19,VWS V14.01,2013-04-10 14:42:00,
2013-04-10 11:48:00,48.7,46.2,29.95,South,171,0.0,0.0,91,0.00,,---,0.19,VWS V14.01,2013-04-10 14:48:00,
2013-04-10 11:54:00,49.2,47.0,29.95,South,171,0.0,0.0,92,0.00,,---,0.19,VWS V14.01,2013-04-10 14:54:00,
2013-04-10 12:00:00,49.8,47.6,29.95,South,171,0.0,0.0,92,0.00,,---,0.19,VWS V14.01,2013-04-10 15:00:00,
2013-04-10 12:06:00,50.4,47.9,29.95,South,171,0.0,0.0,91,0.00,,---,0.19,VWS V14.01,2013-04-10 15:06:00,
2013-04-10 12:12:00,50.7,47.3,29.95,South,171,0.0,0.0,88,0.00,,---,0.19,VWS V14.01,2013-04-10 15:12:00,
2013-04-10 12:18:00,50.9,47.5,29.96,South,171,0.0,0.0,88,0.00,,---,0.19,VWS V14.01,2013-04-10 15:18:00,
2013-04-10 12:24:00,51.8,48.4,29.95,South,171,0.0,0.0,88,0.00,,---,0.19,VWS V14.01,2013-04-10 15:24:00,
2013-04-10 12:30:00,52.4,48.3,29.95,South,171,1.0,0.0,86,0.00,,---,0.19,VWS V14.01,2013-04-10 15:30:00,
2013-04-10 12:36:00,53.0,48.3,29.95,South,171,0.0,0.0,84,0.00,,---,0.19,VWS V14.01,2013-04-10 15:36:00,
2013-04-10 12:42:00,52.8,48.1,29.95,South,171,0.0,0.0,84,0.00,,---,0.19,VWS V14.01,2013-04-10 15:42:00,
2013-04-10 12:48:00,52.7,48.3,29.95,NW,311,2.0,0.0,85,0.00,,---,0.19,VWS V14.01,2013-04-10 15:48:00,
2013-04-10 12:54:00,53.0,48.3,29.95,WNW,294,0.0,0.0,84,0.00,,---,0.19,VWS V14.01,2013-04-10 15:54:00,
2013-04-10 13:00:00,53.7,49.0,29.94,WNW,288,1.0,0.0,84,0.00,,---,0.19,VWS V14.01,2013-04-10 16:00:00,
2013-04-10 13:07:00,54.6,49.2,29.94,WNW,288,0.0,0.0,82,0.00,,---,0.19,VWS V14.01,2013-04-10 16:07:00,
2013-04-10 13:13:00,55.0,49.3,29.93,WNW,288,1.0,0.0,81,0.00,,---,0.19,VWS V14.01,2013-04-10 16:13:00,
2013-04-10 13:19:00,55.4,49.0,29.93,WNW,289,0.0,0.0,79,0.00,,---,0.19,VWS V14.01,2013-04-10 16:19:00,
2013-04-10 13:25:00,55.5,49.4,29.93,West,276,0.0,0.0,80,0.00,,---,0.19,VWS V14.01,2013-04-10 16:25:00,
2013-04-10 13:30:00,55.8,49.7,29.93,West,269,0.0,0.0,80,0.00,,---,0.19,VWS V14.01,2013-04-10 16:30:00,
2013-04-10 13:37:00,56.7,50.6,29.94,WNW,300,0.0,0.0,80,0.00,,---,0.19,VWS V14.01,2013-04-10 16:37:00,
2013-04-10 13:45:00,57.6,50.8,29.93,West,271,0.0,0.0,78,0.00,,---,0.19,VWS V14.01,2013-04-10 16:45:00,
2013-04-10 13:52:00,57.2,49.4,29.93,West,271,0.0,0.0,75,0.00,,---,0.19,VWS V14.01,2013-04-10 16:52:00,
2013-04-10 13:58:00,56.4,49.3,29.94,WSW,248,0.0,0.0,77,0.00,,---,0.19,VWS V14.01,2013-04-10 16:58:00,
2013-04-10 14:04:00,56.3,49.5,29.94,SW,218,2.0,0.0,78,0.00,,---,0.19,VWS V14.01,2013-04-10 17:04:00,
2013-04-10 14:10:00,55.7,49.3,29.94,East,92,1.0,0.0,79,0.00,,---,0.19,VWS V14.01,2013-04-10 17:10:00,
2013-04-10 14:17:00,55.5,48.8,29.93,East,92,0.0,0.0,78,0.00,,---,0.19,VWS V14.01,2013-04-10 17:17:00,
2013-04-10 14:23:00,55.5,48.8,29.94,SE,144,1.0,0.0,78,0.00,,---,0.19,VWS V14.01,2013-04-10 17:23:00,
2013-04-10 14:29:00,55.6,49.2,29.94,SE,144,1.0,0.0,79,0.00,,---,0.19,VWS V14.01,2013-04-10 17:29:00,
2013-04-10 14:35:00,55.7,48.6,29.94,SSW,192,1.0,0.0,77,0.00,,---,0.19,VWS V14.01,2013-04-10 17:35:00,
2013-04-10 14:43:00,55.6,48.9,29.93,SSE,159,2.0,0.0,78,0.00,,---,0.19,VWS V14.01,2013-04-10 17:43:00,
2013-04-10 14:48:00,56.4,49.3,29.93,SSE,161,1.0,0.0,77,0.00,,---,0.19,VWS V14.01,2013-04-10 17:48:00,
2013-04-10 14:54:00,57.3,50.5,29.92,SSE,161,0.0,0.0,78,0.00,,---,0.19,VWS V14.01,2013-04-10 17:54:00,
2013-04-10 15:00:00,58.1,49.9,29.93,SSW,209,0.0,0.0,74,0.00,,---,0.19,VWS V14.01,2013-04-10 18:00:00,
2013-04-10 15:06:00,58.1,49.9,29.93,SSW,205,3.0,0.0,74,0.00,,---,0.19,VWS V14.01,2013-04-10 18:06:00,
2013-04-10 15:12:00,57.7,49.1,29.94,SSW,202,3.0,0.0,73,0.00,,---,0.19,VWS V14.01,2013-04-10 18:12:00,
2013-04-10 15:18:00,57.3,48.7,29.94,SSW,208,1.0,0.0,73,0.00,,---,0.19,VWS V14.01,2013-04-10 18:18:00,
2013-04-10 15:24:00,57.1,48.9,29.94,SSW,192,3.0,0.0,74,0.00,,---,0.19,VWS V14.01,2013-04-10 18:24:00,
2013-04-10 15:30:00,56.8,49.0,29.93,SSW,192,2.0,0.0,75,0.00,,---,0.19,VWS V14.01,2013-04-10 18:30:00,
2013-04-10 15:36:00,56.7,49.2,29.94,SSW,201,0.0,0.0,76,0.00,,---,0.19,VWS V14.01,2013-04-10 18:36:00,
2013-04-10 15:42:00,56.7,49.2,29.93,SSW,201,1.0,0.0,76,0.00,,---,0.19,VWS V14.01,2013-04-10 18:42:00,
2013-04-10 15:48:00,56.8,49.3,29.92,SSW,201,0.0,0.0,76,0.00,,---,0.19,VWS V14.01,2013-04-10 18:48:00,
2013-04-10 15:54:00,56.8,49.3,29.92,SSW,201,0.0,0.0,76,0.00,,---,0.19,VWS V14.01,2013-04-10 18:54:00,
2013-04-10 16:00:00,57.1,49.6,29.92,SSW,201,1.0,0.0,76,0.00,,---,0.19,VWS V14.01,2013-04-10 19:00:00,
2013-04-10 16:06:00,57.8,49.9,29.92,SSW,201,0.0,0.0,75,0.00,,---,0.19,VWS V14.01,2013-04-10 19:06:00,
2013-04-10 16:12:00,58.1,49.5,29.93,SSW,201,1.0,0.0,73,0.00,,---,0.19,VWS V14.01,2013-04-10 19:12:00,
2013-04-10 16:18:00,58.4,49.8,29.93,SSW,201,0.0,0.0,73,0.00,,---,0.19,VWS V14.01,2013-04-10 19:18:00,
2013-04-10 16:24:00,58.6,50.0,29.92,SSW,201,0.0,0.0,73,0.00,,---,0.19,VWS V14.01,2013-04-10 19:24:00,
2013-04-10 16:30:00,59.0,50.0,29.91,SSW,201,0.0,0.0,72,0.00,,---,0.19,VWS V14.01,2013-04-10 19:30:00,
2013-04-10 16:36:00,59.1,49.7,29.88,SSW,204,0.0,0.0,71,0.00,,---,0.19,VWS V14.01,2013-04-10 19:36:00,
2013-04-10 16:42:00,59.4,50.0,29.87,ESE,119,1.0,0.0,71,0.00,,---,0.19,VWS V14.01,2013-04-10 19:42:00,
2013-04-10 16:48:00,60.0,50.6,29.86,SSW,194,0.0,0.0,71,0.00,,---,0.19,VWS V14.01,2013-04-10 19:48:00,
2013-04-10 17:00:00,60.3,49.7,29.83,SSW,202,1.0,4.0,68,0.00,,---,0.19,VWS V14.01,2013-04-10 20:00:00,
2013-04-10 17:30:00,59.6,49.8,29.87,South,180,1.0,4.0,70,0.00,,---,0.19,VWS V14.01,2013-04-10 20:30:00,
2013-04-10 18:00:00,59.5,50.1,29.88,South,180,1.0,3.0,71,0.00,,---,0.19,VWS V14.01,2013-04-10 21:00:00,
2013-04-10 18:30:00,59.6,49.8,29.87,South,180,0.0,3.0,70,0.00,,---,0.19,VWS V14.01,2013-04-10 21:30:00,
2013-04-10 19:00:00,58.8,50.2,29.87,WSW,248,0.0,2.0,73,0.00,,---,0.19,VWS V14.01,2013-04-10 22:00:00,
2013-04-10 19:30:00,57.6,50.8,29.87,WSW,248,0.0,0.0,78,0.00,,---,0.19,VWS V14.01,2013-04-10 22:30:00,
2013-04-10 20:00:00,55.8,49.0,29.85,ESE,112,0.0,2.0,78,0.00,,---,0.19,VWS V14.01,2013-04-10 23:00:00,
2013-04-10 20:30:00,55.0,49.3,29.85,ESE,112,0.0,1.0,81,0.00,,---,0.19,VWS V14.01,2013-04-10 23:30:00,
2013-04-10 21:00:00,52.4,49.8,29.86,ESE,112,0.0,2.0,91,0.09,,---,0.28,VWS V14.01,2013-04-11 00:00:00,
2013-04-10 21:30:00,51.3,49.3,29.88,ESE,112,0.0,1.0,93,0.19,,---,0.38,VWS V14.01,2013-04-11 00:30:00,
2013-04-10 22:00:00,49.6,47.4,29.90,SSW,202,1.0,5.0,92,0.28,,---,0.47,VWS V14.01,2013-04-11 01:00:00,
2013-04-10 22:30:00,48.8,47.2,29.91,SSW,202,0.0,3.0,94,0.25,,---,0.53,VWS V14.01,2013-04-11 01:30:00,
2013-04-10 23:00:00,48.8,47.4,29.89,SSW,202,0.0,1.0,95,0.16,,---,0.54,VWS V14.01,2013-04-11 02:00:00,
2013-04-10 23:30:00,48.7,47.3,29.88,SSW,202,0.0,1.0,95,0.09,,---,0.56,VWS V14.01,2013-04-11 02:30:00,